This demonstration page uses our WeatherBlox Daily Observations layout. Learn more.

Hourly Observations for December 30, 2019

Temp ( °F °C ) Dew Point ( °F °C ) Humidity (%) Winds ( mph kmh ) Pressure ( in mb ) Visibility ( mi km ) Precip ( " mm )
12:15 am 00:15 Cloudy 43 6 43 6 100 100 NNE 6 9 29.82 1010 1 1.60934 0 0
12:35 am 00:35 Cloudy 43 6 43 6 100 100 NE 5 7 29.8 1009 1.25 2.011675 0 0
12:55 am 00:55 Cloudy 43 6 43 6 100 100 NNE 3 6 29.79 1009 1.5 2.41401 0 0
1:15 am 01:15 Cloudy 43 6 43 6 100 100 NE 5 7 29.78 1009 1.75 2.816345 0 0
1:35 am 01:35 Cloudy 43 6 43 6 100 100 N 3 6 29.78 1009 2 3.21868 0 0
1:55 am 01:55 Cloudy 43 6 43 6 100 100 NNE 5 7 29.76 1008 2 3.21868 0 0
2:15 am 02:15 Cloudy 43 6 43 6 100 100 N 5 7 29.77 1008 2.5 4.02335 0 0
2:35 am 02:35 Cloudy 43 6 43 6 100 100 NNE 7 11 29.76 1008 2.5 4.02335 0 0
2:55 am 02:55 Cloudy 43 6 43 6 100 100 NNE 6 9 29.75 1008 4 6.43736 0 0
3:15 am 03:15 Cloudy 43 6 43 6 100 100 NNE 7 11 29.73 1007 3 4.82802 0 0
3:35 am 03:35 Cloudy 43 6 43 6 100 100 NNE 5 7 29.73 1007 2 3.21868 0 0
3:55 am 03:55 Cloudy 43 6 43 6 100 100 N 3 6 29.73 1007 1.5 2.41401 0 0
4:15 am 04:15 Cloudy 43 6 43 6 100 100 ENE 3 6 29.71 1006 2 3.21868 0 0
4:35 am 04:35 Cloudy 43 6 43 6 100 100 Calm 29.69 1005 1.5 2.41401 0 0
4:55 am 04:55 Cloudy 43 6 43 6 100 100 Calm 29.68 1005 1.25 2.011675 0 0
5:15 am 05:15 Cloudy 41 5 41 5 100 100 NNE 3 6 29.67 1005 0.75 1.207005 0 0
5:35 am 05:35 Cloudy 41 5 41 5 100 100 Calm 29.66 1005 0.75 1.207005 0 0
5:55 am 05:55 Cloudy 41 5 41 5 100 100 Calm 29.66 1005 0.5 0.80467 0 0
6:15 am 06:15 Cloudy 41 5 41 5 100 100 NE 3 6 29.65 1004 0.5 0.80467 0 0
6:35 am 06:35 Cloudy 41 5 41 5 100 100 NE 3 6 29.64 1004 0.75 1.207005 0 0
6:55 am 06:55 Cloudy 41 5 41 5 100 100 Calm 29.65 1004 0.75 1.207005 0 0
7:15 am 07:15 Cloudy 41 5 41 5 100 100 NNE 3 6 29.63 1004 1 1.60934 0 0
7:35 am 07:35 Cloudy 41 5 41 5 100 100 N 3 6 29.63 1004 1.25 2.011675 0 0
7:55 am 07:55 Cloudy 41 5 41 5 100 100 undefined N/A 29.63 1004 1.75 2.816345 0 0
8:15 am 08:15 Cloudy 41 5 41 5 100 100 Calm 29.63 1004 2 3.21868 0 0
8:35 am 08:35 Cloudy 41 5 41 5 100 100 Calm 29.63 1004 1.25 2.011675 0 0
8:55 am 08:55 Cloudy 41 5 41 5 100 100 N 3 6 29.63 1004 1 1.60934 0 0
9:15 am 09:15 Cloudy 43 6 43 6 100 100 NW 17 28 29.66 1004 0.75 1.207005 0 0
9:35 am 09:35 Cloudy 45 7 45 7 100 100 N 6 9 29.65 1004 1.75 2.816345 0 0
9:55 am 09:55 Cloudy 46 8 46 8 100 100 NNW 8 13 29.65 1004 3 4.82802 0 0
10:15 am 10:15 Cloudy 46 8 46 8 100 100 NNW 3 6 29.65 1004 2.5 4.02335 0 0
10:35 am 10:35 Cloudy 46 8 46 8 100 100 Calm 29.66 1004 1.75 2.816345 0 0
10:55 am 10:55 Cloudy 48 9 48 9 100 100 NE 5 7 29.64 1004 4 6.43736 0 0
11:15 am 11:15 Cloudy 48 9 48 9 100 100 ENE 5 7 29.64 1004 4 6.43736 0 0
11:35 am 11:35 Cloudy 46 8 46 8 100 100 NE 5 7 29.62 1003 5 8.0467 0 0
11:55 am 11:55 Cloudy 46 8 46 8 100 100 NNE 3 6 29.64 1004 10 16.0934 0 0
12:15 pm 12:15 Cloudy 46 8 46 8 100 100 Calm 29.63 1003 10 16.0934 0 0
12:35 pm 12:35 Mostly Cloudy 50 10 50 10 100 100 NNE 3 6 29.62 1003 10 16.0934 0 0
12:55 pm 12:55 Partly Cloudy 50 10 50 10 100 100 Calm 29.61 1003 10 16.0934 0 0
1:15 pm 13:15 Mostly Cloudy 52 11 52 11 100 100 NE 3 6 29.6 1003 10 16.0934 0 0
1:35 pm 13:35 Cloudy with Nearby Thunderstorms 50 10 50 10 100 100 NNE 8 13 29.61 1003 10 16.0934 0 0
1:55 pm 13:55 Cloudy 52 11 52 11 100 100 NNE 3 6 29.6 1003 10 16.0934 0 0
2:15 pm 14:15 Mostly Cloudy 52 11 52 11 100 100 NNE 5 7 29.6 1003 10 16.0934 0 0
2:35 pm 14:35 Mostly Cloudy 52 11 52 11 100 100 NE 3 6 29.6 1003 10 16.0934 0 0
2:55 pm 14:55 Cloudy 52 11 50 10 94 94 NNE 7 11 29.61 1003 10 16.0934 0 0
3:15 pm 15:15 Cloudy 50 10 50 10 100 100 NNE 8 13 29.63 1003 10 16.0934 0 0
3:35 pm 15:35 Mostly Cloudy 50 10 50 10 100 100 NNE 6 9 29.63 1003 10 16.0934 0 0
3:55 pm 15:55 Mostly Cloudy 50 10 48 9 94 94 NNE 6 9 29.65 1004 10 16.0934 0 0
4:15 pm 16:15 Cloudy 46 8 46 8 100 100 NE 8 13 29.66 1004 10 16.0934 0 0
4:35 pm 16:35 Cloudy 46 8 46 8 100 100 NNE 6 9 29.66 1004 10 16.0934 0 0
4:55 pm 16:55 Cloudy 46 8 46 8 100 100 NNE 7 11 29.68 1005 10 16.0934 0 0
5:15 pm 17:15 Cloudy 45 7 45 7 100 100 NNE 9 15 29.68 1005 10 16.0934 0 0
5:35 pm 17:35 Cloudy 45 7 45 7 100 100 NNE 13 20 29.68 1005 7 11.26538 0 0
5:55 pm 17:55 Cloudy 43 6 43 6 100 100 NNE 14 22 29.69 1005 7 11.26538 0 0
6:15 pm 18:15 Cloudy 43 6 43 6 100 100 NNE 10 17 29.71 1006 5 8.0467 0 0
6:35 pm 18:35 Cloudy 41 5 41 5 100 100 NNE 14 22 29.72 1007 5 8.0467 0 0
6:55 pm 18:55 Cloudy 41 5 41 5 100 100 NNE 14 22 29.73 1007 2 3.21868 0 0
7:15 pm 19:15 Cloudy 41 5 41 5 100 100 NNE 8 13 29.74 1007 2 3.21868 0 0
7:35 pm 19:35 Cloudy 41 5 41 5 100 100 NNE 8 13 29.75 1008 2.5 4.02335 0 0
7:55 pm 19:55 Cloudy 41 5 41 5 100 100 NNE 7 11 29.75 1008 2.5 4.02335 0 0
8:15 pm 20:15 Cloudy 41 5 41 5 100 100 NNE 8 13 29.75 1008 2.5 4.02335 0 0
8:35 pm 20:35 Cloudy 41 5 41 5 100 100 NE 8 13 29.75 1008 3 4.82802 0 0
8:55 pm 20:55 Cloudy 41 5 41 5 100 100 NNE 6 9 29.75 1008 3 4.82802 0 0
9:15 pm 21:15 Cloudy 41 5 41 5 100 100 NE 9 15 29.75 1008 3 4.82802 0 0
9:35 pm 21:35 Cloudy 41 5 41 5 100 100 ENE 5 7 29.76 1008 4 6.43736 0 0
9:55 pm 21:55 Cloudy 41 5 41 5 100 100 Calm 29.76 1008 4 6.43736 0 0
10:15 pm 22:15 Cloudy 41 5 41 5 100 100 N 5 7 29.76 1008 4 6.43736 0 0
10:35 pm 22:35 Cloudy 39 4 39 4 100 100 NNE 8 13 29.77 1008 4 6.43736 0 0
10:55 pm 22:55 Cloudy 39 4 39 4 100 100 N 7 11 29.77 1008 3 4.82802 0 0
11:15 pm 23:15 Cloudy 39 4 39 4 100 100 N 6 9 29.77 1008 2.5 4.02335 0 0
11:35 pm 23:35 Cloudy 37 3 37 3 100 100 NNE 7 11 29.76 1008 2.5 4.02335 0 0
11:55 pm 23:55 Cloudy 37 3 37 3 100 100 N 5 7 29.77 1008 2.5 4.02335 0 0

Powered by AerisWeather